^^

..:: Storico WU ::..




Lo storico viene creato da WUnderground con i dati che la stazione Meteomincio invia al loro server. L' aggiornamento viene fatto ogni 5 minuti circa, tuttavia possono esserci intervalli pił ampi a causa di errori, interruzioni di servizio o problemi nell' invio tramite FTP.


Storico stazione MeteoMincio
Giorno Sommario per Settembre 02, 2022 Unità:  Inglese    Metrico   Entrambi
Giorno Settimana Mese Anno
  Max: Min: Media:
Temperatura: 80.6 °F 64.4 °F 72.3 °F
Dew Point: 62.6 °F 59 °F 60.8 °F
Umidità: 85% 51% 68%
Velocità vento: 9.3mph 0mph 3.7mph
Raffica: 11.8mph - -
Direzione- - East
Pressione: 30 in 29.9 in -
Precipitazioni: 0 in    
 
 
Tabulato Dati per Settembre 02, 2022
Ora Temperatura Dew Point Pressione Direzione Velocità vento Raffica Umidità Intensità pioggia (oraria) Info solare Situazione
00:04 68 °F 60.8 °F 30 in East 6.2 mph 10.6 mph 74% 0 in 0.00 W/m2 unknown
00:09 68 °F 60.8 °F 30 in East 6.2 mph 9.9 mph 75% 0 in 0.00 W/m2 unknown
00:14 68 °F 60.8 °F 30 in East 6.8 mph 9.3 mph 75% 0 in 0.00 W/m2 unknown
00:19 68 °F 60.8 °F 30 in East 5 mph 8.1 mph 75% 0 in 0.00 W/m2 unknown
00:24 68 °F 60.8 °F 30 in East 5.6 mph 6.8 mph 75% 0 in 0.00 W/m2 unknown
00:29 68 °F 60.8 °F 30 in East 6.2 mph 6.8 mph 75% 0 in 0.00 W/m2 unknown
00:34 68 °F 60.8 °F 30 in East 5 mph 8.1 mph 75% 0 in 0.00 W/m2 unknown
00:39 68 °F 60.8 °F 30 in East 5 mph 8.1 mph 76% 0 in 0.00 W/m2 unknown
00:44 68 °F 60.8 °F 30 in East 5 mph 6.8 mph 76% 0 in 0.00 W/m2 unknown
00:49 68 °F 60.8 °F 30 in East 6.2 mph 8.1 mph 75% 0 in 0.00 W/m2 unknown
00:54 68 °F 60.8 °F 30 in East 4.3 mph 8.1 mph 75% 0 in 0.00 W/m2 unknown
00:59 68 °F 60.8 °F 30 in ENE 6.2 mph 8.1 mph 75% 0 in 0.00 W/m2 unknown
01:04 68 °F 60.8 °F 30 in ENE 5 mph 8.1 mph 75% 0 in 0.00 W/m2 unknown
01:09 68 °F 60.8 °F 30 in East 5 mph 6.8 mph 75% 0 in 0.00 W/m2 unknown
01:14 68 °F 60.8 °F 30 in East 4.3 mph 6.8 mph 75% 0 in 0.00 W/m2 unknown
01:19 68 °F 60.8 °F 30 in East 3.7 mph 6.8 mph 75% 0 in 0.00 W/m2 unknown
01:24 68 °F 59 °F 30 in ENE 3.7 mph 6.8 mph 75% 0 in 0.00 W/m2 unknown
01:29 68 °F 59 °F 30 in ENE 5 mph 6.8 mph 75% 0 in 0.00 W/m2 unknown
01:34 68 °F 60.8 °F 30 in East 3.7 mph 6.8 mph 76% 0 in 0.00 W/m2 unknown
01:39 68 °F 60.8 °F 30 in East 3.1 mph 6.2 mph 76% 0 in 0.00 W/m2 unknown
01:44 68 °F 60.8 °F 30 in East 3.7 mph 6.2 mph 76% 0 in 0.00 W/m2 unknown
01:49 68 °F 60.8 °F 30 in East 3.1 mph 5 mph 76% 0 in 0.00 W/m2 unknown
01:54 68 °F 60.8 °F 30 in East 3.1 mph 5 mph 77% 0 in 0.00 W/m2 unknown
01:59 68 °F 60.8 °F 30 in East 3.7 mph 5 mph 77% 0 in 0.00 W/m2 unknown
02:04 68 °F 60.8 °F 30 in East 3.7 mph 6.2 mph 77% 0 in 0.00 W/m2 unknown
02:09 68 °F 59 °F 30 in ENE 2.5 mph 3.7 mph 77% 0 in 0.00 W/m2 unknown
02:14 68 °F 59 °F 30 in ENE 2.5 mph 3.7 mph 77% 0 in 0.00 W/m2 unknown
02:19 68 °F 59 °F 30 in ENE 1.9 mph 3.7 mph 78% 0 in 0.00 W/m2 unknown
02:24 66.2 °F 59 °F 30 in East 1.9 mph 3.7 mph 78% 0 in 0.00 W/m2 unknown
02:29 66.2 °F 59 °F 30 in ENE 2.5 mph 3.7 mph 78% 0 in 0.00 W/m2 unknown
02:34 66.2 °F 59 °F 30 in East 1.9 mph 3.1 mph 78% 0 in 0.00 W/m2 unknown
02:39 66.2 °F 59 °F 30 in ENE 1.2 mph 2.5 mph 78% 0 in 0.00 W/m2 unknown
02:44 66.2 °F 59 °F 30 in East 1.2 mph 2.5 mph 78% 0 in 0.00 W/m2 unknown
02:49 66.2 °F 59 °F 30 in ENE 1.9 mph 2.5 mph 78% 0 in 0.00 W/m2 unknown
02:54 66.2 °F 59 °F 30 in ENE 2.5 mph 3.7 mph 78% 0 in 0.00 W/m2 unknown
02:59 66.2 °F 59 °F 30 in ENE 3.7 mph 6.2 mph 78% 0 in 0.00 W/m2 unknown
03:04 66.2 °F 59 °F 30 in ENE 3.1 mph 6.2 mph 78% 0 in 0.00 W/m2 unknown
03:09 66.2 °F 59 °F 30 in ENE 2.5 mph 5 mph 79% 0 in 0.00 W/m2 unknown
03:14 66.2 °F 59 °F 30 in ENE 3.1 mph 6.2 mph 79% 0 in 0.00 W/m2 unknown
03:19 66.2 °F 59 °F 30 in ENE 3.1 mph 6.2 mph 79% 0 in 0.00 W/m2 unknown
03:24 66.2 °F 59 °F 30 in ENE 1.9 mph 3.7 mph 79% 0 in 0.00 W/m2 unknown
03:29 66.2 °F 59 °F 30 in NE 2.5 mph 3.7 mph 79% 0 in 0.00 W/m2 unknown
03:34 66.2 °F 59 °F 30 in ENE 3.1 mph 3.7 mph 79% 0 in 0.00 W/m2 unknown
03:39 66.2 °F 59 °F 30 in ENE 3.1 mph 3.7 mph 79% 0 in 0.00 W/m2 unknown
03:44 66.2 °F 60.8 °F 30 in ENE 2.5 mph 3.7 mph 80% 0 in 0.00 W/m2 unknown
03:49 66.2 °F 60.8 °F 30 in ENE 3.1 mph 3.7 mph 80% 0 in 0.00 W/m2 unknown
03:54 66.2 °F 60.8 °F 30 in ENE 3.1 mph 3.7 mph 80% 0 in 0.00 W/m2 unknown
03:59 66.2 °F 59 °F 30 in East 2.5 mph 4.3 mph 80% 0 in 0.00 W/m2 unknown
04:04 66.2 °F 59 °F 30 in ENE 2.5 mph 5 mph 81% 0 in 0.00 W/m2 unknown
04:09 66.2 °F 59 °F 30 in East 2.5 mph 3.7 mph 81% 0 in 0.00 W/m2 unknown
04:14 66.2 °F 59 °F 30 in East 3.1 mph 5 mph 81% 0 in 0.00 W/m2 unknown
04:19 66.2 °F 59 °F 30 in East 3.1 mph 5 mph 81% 0 in 0.00 W/m2 unknown
04:24 66.2 °F 60.8 °F 30 in East 2.5 mph 5 mph 82% 0 in 0.00 W/m2 unknown
04:29 66.2 °F 59 °F 30 in East 3.1 mph 5 mph 81% 0 in 0.00 W/m2 unknown
04:34 66.2 °F 59 °F 30 in East 4.3 mph 6.2 mph 81% 0 in 0.00 W/m2 unknown
04:39 66.2 °F 59 °F 30 in ENE 4.3 mph 6.2 mph 81% 0 in 0.00 W/m2 unknown
04:44 66.2 °F 59 °F 30 in East 3.1 mph 6.2 mph 80% 0 in 0.00 W/m2 unknown
04:49 66.2 °F 59 °F 30 in East 2.5 mph 4.3 mph 80% 0 in 0.00 W/m2 unknown
04:54 66.2 °F 59 °F 30 in East 2.5 mph 3.7 mph 80% 0 in 0.00 W/m2 unknown
04:59 66.2 °F 59 °F 30 in ENE 1.9 mph 3.7 mph 80% 0 in 0.00 W/m2 unknown
05:04 66.2 °F 59 °F 30 in East 1.9 mph 3.7 mph 81% 0 in 0.00 W/m2 unknown
05:09 64.4 °F 59 °F 30 in East 1.9 mph 3.7 mph 81% 0 in 0.00 W/m2 unknown
05:14 64.4 °F 59 °F 30 in East 1.9 mph 3.7 mph 81% 0 in 0.00 W/m2 unknown
05:19 64.4 °F 59 °F 30 in East 1.9 mph 3.7 mph 81% 0 in 0.00 W/m2 unknown
05:24 64.4 °F 59 °F 30 in East 1.9 mph 3.1 mph 81% 0 in 0.00 W/m2 unknown
05:29 64.4 °F 59 °F 30 in East 1.9 mph 2.5 mph 80% 0 in 0.00 W/m2 unknown
05:34 64.4 °F 59 °F 30 in East 2.5 mph 3.7 mph 80% 0 in 0.00 W/m2 unknown
05:39 64.4 °F 59 °F 30 in East 2.5 mph 3.7 mph 80% 0 in 0.00 W/m2 unknown
05:44 66.2 °F 59 °F 30 in East 2.5 mph 3.7 mph 80% 0 in 0.00 W/m2 unknown
05:49 66.2 °F 59 °F 30 in East 2.5 mph 3.7 mph 80% 0 in 0.00 W/m2 unknown
05:54 66.2 °F 59 °F 30 in East 1.2 mph 3.1 mph 80% 0 in 0.00 W/m2 unknown
05:59 64.4 °F 59 °F 30 in East 1.2 mph 1.9 mph 81% 0 in 0.00 W/m2 unknown
06:04 64.4 °F 59 °F 30 in East 0.6 mph 1.2 mph 82% 0 in 0.00 W/m2 unknown
06:09 64.4 °F 59 °F 30 in East 0.6 mph 1.2 mph 82% 0 in 0.00 W/m2 unknown
06:14 64.4 °F 59 °F 30 in East 0.6 mph 1.2 mph 82% 0 in 0.00 W/m2 unknown
06:19 64.4 °F 59 °F 30 in East 0.6 mph 1.2 mph 82% 0 in 0.00 W/m2 unknown
06:24 64.4 °F 59 °F 30 in Calm   1.2 mph 83% 0 in 0.00 W/m2 unknown
06:29 64.4 °F 59 °F 30 in East 0.6 mph 1.2 mph 84% 0 in 0.00 W/m2 unknown
06:34 64.4 °F 59 °F 30 in East 1.2 mph 1.2 mph 84% 0 in 0.00 W/m2 unknown
06:39 64.4 °F 59 °F 30 in Calm   1.2 mph 84% 0 in 0.00 W/m2 unknown
06:44 64.4 °F 59 °F 30 in ENE 1.9 mph 3.1 mph 85% 0 in 5.00 W/m2 unknown
06:49 64.4 °F 59 °F 30 in ENE 2.5 mph 3.7 mph 85% 0 in 7.00 W/m2 unknown
06:54 64.4 °F 59 °F 30 in ENE 2.5 mph 3.7 mph 85% 0 in 11.00 W/m2 unknown
06:59 64.4 °F 59 °F 30 in NE 2.5 mph 5 mph 84% 0 in 12.00 W/m2 unknown
07:04 64.4 °F 59 °F 30 in NE 1.2 mph 5 mph 83% 0 in 14.00 W/m2 unknown
07:09 64.4 °F 59 °F 30 in Calm   1.9 mph 82% 0 in 18.00 W/m2 unknown
07:14 64.4 °F 59 °F 30 in Calm   1.2 mph 82% 0 in 19.00 W/m2 unknown
07:19 64.4 °F 59 °F 30 in Calm   1.2 mph 83% 0 in 28.00 W/m2 unknown
07:24 64.4 °F 59 °F 30 in NE 0.6 mph 2.5 mph 83% 0 in 40.00 W/m2 unknown
07:29 64.4 °F 60.8 °F 30 in Calm   1.9 mph 84% 0 in 60.00 W/m2 unknown
07:34 66.2 °F 60.8 °F 30 in Calm   1.2 mph 84% 0 in 69.00 W/m2 unknown
07:39 66.2 °F 60.8 °F 30 in Calm   1.2 mph 83% 0 in 84.00 W/m2 unknown
07:44 66.2 °F 60.8 °F 30 in Calm   1.2 mph 82% 0 in 97.00 W/m2 unknown
07:49 66.2 °F 60.8 °F 30 in East 1.2 mph 2.5 mph 81% 0 in 97.00 W/m2 unknown
07:54 66.2 °F 60.8 °F 30 in East 1.9 mph 2.5 mph 80% 0 in 107.00 W/m2 unknown
07:59 66.2 °F 60.8 °F 30 in East 1.2 mph 1.9 mph 81% 0 in 120.00 W/m2 unknown
08:04 66.2 °F 60.8 °F 30 in ENE 1.9 mph 3.7 mph 81% 0 in 139.00 W/m2 unknown
08:09 66.2 °F 60.8 °F 30 in ENE 2.5 mph 3.7 mph 80% 0 in 174.00 W/m2 unknown
08:14 68 °F 60.8 °F 30 in ENE 2.5 mph 3.7 mph 80% 0 in 174.00 W/m2 unknown
08:19 68 °F 60.8 °F 30 in ENE 3.7 mph 5 mph 79% 0 in 192.00 W/m2 unknown
08:24 68 °F 60.8 °F 30 in ENE 3.7 mph 5 mph 79% 0 in 125.00 W/m2 unknown
08:29 68 °F 60.8 °F 30 in ENE 3.1 mph 5 mph 80% 0 in 54.00 W/m2 unknown
08:34 68 °F 60.8 °F 30 in ENE 1.9 mph 5 mph 81% 0 in 91.00 W/m2 unknown
08:39 68 °F 60.8 °F 30 in East 1.9 mph 3.1 mph 81% 0 in 243.00 W/m2 unknown
08:44 68 °F 60.8 °F 30 in East 2.5 mph 3.7 mph 81% 0 in 243.00 W/m2 unknown
08:49 68 °F 60.8 °F 30 in East 3.1 mph 3.7 mph 78% 0 in 229.00 W/m2 unknown
08:54 69.8 °F 62.6 °F 30 in East 1.9 mph 3.7 mph 78% 0 in 339.00 W/m2 unknown
08:59 69.8 °F 62.6 °F 30 in ESE 2.5 mph 3.7 mph 78% 0 in 348.00 W/m2 unknown
09:04 69.8 °F 62.6 °F 30 in East 5 mph 6.8 mph 76% 0 in 339.00 W/m2 unknown
09:09 69.8 °F 60.8 °F 30 in ESE 5 mph 6.8 mph 73% 0 in 330.00 W/m2 unknown
09:14 71.6 °F 62.6 °F 30 in East 6.2 mph 8.1 mph 73% 0 in 367.00 W/m2 unknown
09:19 71.6 °F 62.6 °F 30 in East 5.6 mph 8.1 mph 73% 0 in 396.00 W/m2 unknown
09:24 71.6 °F 60.8 °F 30 in East 7.5 mph 9.3 mph 71% 0 in 427.00 W/m2 unknown
09:29 71.6 °F 62.6 °F 30 in ESE 7.5 mph 8.7 mph 70% 0 in 422.00 W/m2 unknown
09:34 73.4 °F 62.6 °F 30 in ESE 6.2 mph 8.1 mph 69% 0 in 438.00 W/m2 unknown
09:39 73.4 °F 62.6 °F 30 in ENE 5 mph 8.1 mph 69% 0 in 438.00 W/m2 unknown
09:44 73.4 °F 60.8 °F 30 in East 6.2 mph 11.2 mph 67% 0 in 432.00 W/m2 unknown
09:49 73.4 °F 60.8 °F 30 in East 6.8 mph 11.8 mph 67% 0 in 432.00 W/m2 unknown
09:54 73.4 °F 62.6 °F 30 in East 7.5 mph 11.8 mph 67% 0 in 448.00 W/m2 unknown
09:59 73.4 °F 60.8 °F 30 in ESE 7.5 mph 11.8 mph 66% 0 in 496.00 W/m2 unknown
10:04 73.4 °F 60.8 °F 30 in East 8.1 mph 11.8 mph 66% 0 in 496.00 W/m2 unknown
10:09 73.4 °F 60.8 °F 30 in East 8.1 mph 11.8 mph 64% 0 in 283.00 W/m2 unknown
10:14 73.4 °F 60.8 °F 30 in East 9.3 mph 11.8 mph 65% 0 in 512.00 W/m2 unknown
10:19 73.4 °F 60.8 °F 30 in East 6.8 mph 11.8 mph 65% 0 in 519.00 W/m2 unknown
10:24 75.2 °F 60.8 °F 30 in East 7.5 mph 10.6 mph 64% 0 in 515.00 W/m2 unknown
10:29 75.2 °F 62.6 °F 30 in ESE 6.8 mph 10.6 mph 65% 0 in 499.00 W/m2 unknown
10:34 75.2 °F 60.8 °F 30 in East 7.5 mph 10.6 mph 64% 0 in 406.00 W/m2 unknown
10:39 75.2 °F 62.6 °F 30 in East 8.7 mph 10.6 mph 65% 0 in 545.00 W/m2 unknown
10:44 75.2 °F 60.8 °F 30 in East 7.5 mph 9.9 mph 63% 0 in 561.00 W/m2 unknown
10:49 75.2 °F 60.8 °F 30 in East 7.5 mph 9.3 mph 63% 0 in 575.00 W/m2 unknown
10:53 75.2 °F 60.8 °F 30 in East 6.2 mph 8.7 mph 62% 0 in 584.00 W/m2 unknown
10:59 75.2 °F 60.8 °F 30 in ESE 7.5 mph 9.3 mph 61% 0 in 610.00 W/m2 unknown
11:04 75.2 °F 60.8 °F 30 in ENE 6.2 mph 8.7 mph 61% 0 in 624.00 W/m2 unknown
11:09 75.2 °F 60.8 °F 30 in ESE 7.5 mph 9.9 mph 60% 0 in 615.00 W/m2 unknown
11:14 75.2 °F 60.8 °F 30 in ESE 6.8 mph 10.6 mph 61% 0 in 624.00 W/m2 unknown
11:19 75.2 °F 60.8 °F 30 in East 8.1 mph 10.6 mph 60% 0 in 628.00 W/m2 unknown
11:24 75.2 °F 60.8 °F 30 in East 6.8 mph 9.9 mph 61% 0 in 633.00 W/m2 unknown
11:29 77 °F 60.8 °F 30 in East 6.8 mph 11.2 mph 60% 0 in 649.00 W/m2 unknown
11:34 77 °F 60.8 °F 30 in East 7.5 mph 11.8 mph 59% 0 in 661.00 W/m2 unknown
11:39 77 °F 60.8 °F 30 in ENE 7.5 mph 11.8 mph 58% 0 in 664.00 W/m2 unknown
11:44 77 °F 60.8 °F 30 in ENE 6.2 mph 8.7 mph 58% 0 in 675.00 W/m2 unknown
11:49 77 °F 60.8 °F 30 in ESE 5.6 mph 9.3 mph 58% 0 in 686.00 W/m2 unknown
11:54 77 °F 60.8 °F 30 in ESE 6.2 mph 8.7 mph 58% 0 in 693.00 W/m2 unknown
11:59 77 °F 60.8 °F 30 in ENE 3.1 mph 8.1 mph 59% 0 in 694.00 W/m2 unknown
12:04 77 °F 60.8 °F 30 in East 7.5 mph 10.6 mph 58% 0 in 703.00 W/m2 unknown
12:09 77 °F 60.8 °F 30 in East 5 mph 9.9 mph 57% 0 in 714.00 W/m2 unknown
12:14 77 °F 60.8 °F 30 in ESE 6.2 mph 8.1 mph 58% 0 in 721.00 W/m2 unknown
12:19 77 °F 60.8 °F 30 in ENE 5 mph 8.1 mph 57% 0 in 719.00 W/m2 unknown
12:24 77 °F 60.8 °F 30 in East 3.1 mph 6.8 mph 56% 0 in 719.00 W/m2 unknown
12:29 78.8 °F 60.8 °F 30 in SSW 3.7 mph 6.2 mph 56% 0 in 724.00 W/m2 unknown
12:34 78.8 °F 60.8 °F 30 in WSW 3.7 mph 6.2 mph 57% 0 in 729.00 W/m2 unknown
12:39 78.8 °F 62.6 °F 30 in ENE 3.7 mph 6.2 mph 57% 0 in 737.00 W/m2 unknown
12:44 78.8 °F 60.8 °F 30 in ESE 5.6 mph 8.1 mph 56% 0 in 742.00 W/m2 unknown
12:49 78.8 °F 60.8 °F 30 in SE 5 mph 8.1 mph 56% 0 in 751.00 W/m2 unknown
12:54 78.8 °F 60.8 °F 30 in ESE 6.2 mph 9.3 mph 56% 0 in 754.00 W/m2 unknown
12:59 78.8 °F 60.8 °F 30 in SE 6.2 mph 9.3 mph 56% 0 in 756.00 W/m2 unknown
13:04 78.8 °F 60.8 °F 30 in ESE 8.7 mph 10.6 mph 56% 0 in 754.00 W/m2 unknown
13:09 77 °F 60.8 °F 30 in East 6.8 mph 9.9 mph 55% 0 in 758.00 W/m2 unknown
13:14 78.8 °F 60.8 °F 30 in ESE 3.7 mph 6.8 mph 55% 0 in 758.00 W/m2 unknown
13:19 78.8 °F 60.8 °F 30 in SE 3.7 mph 6.8 mph 54% 0 in 756.00 W/m2 unknown
13:24 78.8 °F 60.8 °F 30 in ENE 5 mph 6.8 mph 55% 0 in 754.00 W/m2 unknown
13:29 78.8 °F 62.6 °F 30 in ESE 4.3 mph 6.8 mph 56% 0 in 768.00 W/m2 unknown
13:34 78.8 °F 60.8 °F 30 in ESE 5 mph 6.2 mph 55% 0 in 768.00 W/m2 unknown
13:39 78.8 °F 62.6 °F 30 in East 5.6 mph 8.1 mph 56% 0 in 766.00 W/m2 unknown
13:44 78.8 °F 62.6 °F 30 in ENE 7.5 mph 9.3 mph 56% 0 in 765.00 W/m2 unknown
13:49 78.8 °F 60.8 °F 30 in East 7.5 mph 9.3 mph 54% 0 in 752.00 W/m2 unknown
13:54 78.8 °F 62.6 °F 30 in East 5 mph 8.7 mph 57% 0 in 766.00 W/m2 unknown
13:59 78.8 °F 60.8 °F 29.9 in ESE 7.5 mph 10.6 mph 55% 0 in 777.00 W/m2 unknown
14:04 78.8 °F 60.8 °F 29.9 in SSE 7.5 mph 10.6 mph 54% 0 in 777.00 W/m2 unknown
14:09 78.8 °F 60.8 °F 29.9 in South 3.1 mph 9.9 mph 53% 0 in 763.00 W/m2 unknown
14:14 78.8 °F 62.6 °F 29.9 in West 3.1 mph 3.7 mph 56% 0 in 752.00 W/m2 unknown
14:19 78.8 °F 60.8 °F 29.9 in WNW 3.1 mph 6.2 mph 54% 0 in 761.00 W/m2 unknown
14:24 80.6 °F 60.8 °F 29.9 in SSW 4.3 mph 6.2 mph 54% 0 in 752.00 W/m2 unknown
14:29 80.6 °F 62.6 °F 29.9 in SE 3.7 mph 6.2 mph 54% 0 in 745.00 W/m2 unknown
14:34 80.6 °F 62.6 °F 29.9 in ENE 6.2 mph 9.3 mph 56% 0 in 735.00 W/m2 unknown
14:39 80.6 °F 62.6 °F 29.9 in East 6.2 mph 9.3 mph 54% 0 in 735.00 W/m2 unknown
14:44 80.6 °F 62.6 °F 29.9 in SE 3.1 mph 6.2 mph 54% 0 in 731.00 W/m2 unknown
14:49 80.6 °F 62.6 °F 29.9 in South 3.7 mph 8.7 mph 54% 0 in 726.00 W/m2 unknown
14:54 80.6 °F 62.6 °F 29.9 in East 6.8 mph 9.3 mph 54% 0 in 719.00 W/m2 unknown
14:59 80.6 °F 62.6 °F 29.9 in ESE 6.2 mph 8.7 mph 54% 0 in 710.00 W/m2 unknown
15:04 78.8 °F 60.8 °F 29.9 in East 5.6 mph 8.1 mph 53% 0 in 703.00 W/m2 unknown
15:09 80.6 °F 60.8 °F 29.9 in East 5 mph 8.1 mph 53% 0 in 689.00 W/m2 unknown
15:14 80.6 °F 60.8 °F 29.9 in ENE 5 mph 6.8 mph 53% 0 in 691.00 W/m2 unknown
15:19 80.6 °F 60.8 °F 29.9 in East 5.6 mph 8.1 mph 53% 0 in 673.00 W/m2 unknown
15:24 80.6 °F 62.6 °F 29.9 in SE 5 mph 8.1 mph 53% 0 in 661.00 W/m2 unknown
15:29 80.6 °F 60.8 °F 29.9 in SE 6.2 mph 8.1 mph 51% 0 in 666.00 W/m2 unknown
15:34 80.6 °F 60.8 °F 29.9 in East 6.8 mph 8.1 mph 53% 0 in 659.00 W/m2 unknown
15:39 80.6 °F 60.8 °F 29.9 in ESE 6.2 mph 8.1 mph 53% 0 in 629.00 W/m2 unknown
15:44 80.6 °F 60.8 °F 29.9 in ENE 5.6 mph 6.8 mph 52% 0 in 621.00 W/m2 unknown
15:49 80.6 °F 60.8 °F 29.9 in East 5.6 mph 6.8 mph 52% 0 in 629.00 W/m2 unknown
15:54 80.6 °F 62.6 °F 29.9 in East 5.6 mph 6.8 mph 53% 0 in 622.00 W/m2 unknown
15:59 80.6 °F 62.6 °F 29.9 in ESE 3.7 mph 6.8 mph 53% 0 in 606.00 W/m2 unknown
16:04 80.6 °F 62.6 °F 29.9 in ESE 4.3 mph 6.8 mph 54% 0 in 592.00 W/m2 unknown
16:09 80.6 °F 62.6 °F 29.9 in SE 4.3 mph 6.8 mph 54% 0 in 587.00 W/m2 unknown
16:14 80.6 °F 60.8 °F 29.9 in ESE 5.6 mph 6.8 mph 52% 0 in 577.00 W/m2 unknown
16:19 80.6 °F 60.8 °F 29.9 in SSE 3.7 mph 6.8 mph 52% 0 in 564.00 W/m2 unknown
16:24 80.6 °F 60.8 °F 29.9 in ESE 8.1 mph 9.3 mph 52% 0 in 548.00 W/m2 unknown
16:29 80.6 °F 60.8 °F 29.9 in SE 6.8 mph 8.7 mph 51% 0 in 540.00 W/m2 unknown
16:34 80.6 °F 60.8 °F 29.9 in South 5 mph 8.1 mph 51% 0 in 533.00 W/m2 unknown
16:39 80.6 °F 60.8 °F 29.9 in SE 3.7 mph 8.1 mph 51% 0 in 522.00 W/m2 unknown
16:44 80.6 °F 60.8 °F 29.9 in ESE 5.6 mph 8.1 mph 52% 0 in 506.00 W/m2 unknown
16:49 80.6 °F 60.8 °F 29.9 in ESE 6.2 mph 8.1 mph 52% 0 in 499.00 W/m2 unknown
16:54 80.6 °F 60.8 °F 29.9 in ESE 4.3 mph 6.8 mph 53% 0 in 489.00 W/m2 unknown
16:59 80.6 °F 62.6 °F 29.9 in ESE 5.6 mph 6.8 mph 54% 0 in 473.00 W/m2 unknown
17:04 80.6 °F 60.8 °F 29.9 in South 5 mph 6.8 mph 53% 0 in 455.00 W/m2 unknown
17:09 80.6 °F 60.8 °F 29.9 in SE 6.2 mph 8.1 mph 52% 0 in 445.00 W/m2 unknown
17:14 80.6 °F 60.8 °F 29.9 in ESE 6.2 mph 8.1 mph 52% 0 in 436.00 W/m2 unknown
17:19 80.6 °F 62.6 °F 29.9 in East 6.2 mph 8.1 mph 53% 0 in 418.00 W/m2 unknown
17:24 80.6 °F 60.8 °F 29.9 in East 6.2 mph 8.1 mph 52% 0 in 401.00 W/m2 unknown
17:29 80.6 °F 60.8 °F 29.9 in East 5 mph 8.1 mph 52% 0 in 392.00 W/m2 unknown
17:34 80.6 °F 60.8 °F 29.9 in East 5 mph 6.8 mph 52% 0 in 381.00 W/m2 unknown
17:39 80.6 °F 60.8 °F 29.9 in ESE 5.6 mph 6.8 mph 52% 0 in 366.00 W/m2 unknown
17:44 80.6 °F 60.8 °F 29.9 in ESE 4.3 mph 6.8 mph 53% 0 in 345.00 W/m2 unknown
17:49 80.6 °F 60.8 °F 29.9 in ESE 5 mph 6.8 mph 53% 0 in 323.00 W/m2 unknown
17:54 78.8 °F 60.8 °F 29.9 in East 4.3 mph 6.8 mph 52% 0 in 316.00 W/m2 unknown
17:59 78.8 °F 60.8 °F 29.9 in ESE 5 mph 6.8 mph 52% 0 in 301.00 W/m2 unknown
18:04 80.6 °F 60.8 °F 29.9 in ESE 3.1 mph 6.8 mph 53% 0 in 279.00 W/m2 unknown
18:09 78.8 °F 62.6 °F 29.9 in ESE 3.1 mph 5 mph 55% 0 in 62.00 W/m2 unknown
18:14 78.8 °F 62.6 °F 29.9 in ESE 3.1 mph 5 mph 56% 0 in 190.00 W/m2 unknown
18:19 78.8 °F 62.6 °F 29.9 in ESE 3.1 mph 3.7 mph 57% 0 in 190.00 W/m2 unknown
18:24 78.8 °F 62.6 °F 29.9 in ESE 3.1 mph 3.7 mph 56% 0 in 185.00 W/m2 unknown
18:29 78.8 °F 60.8 °F 29.9 in ESE 2.5 mph 3.7 mph 56% 0 in 185.00 W/m2 unknown
18:34 78.8 °F 60.8 °F 29.9 in ESE 1.9 mph 3.7 mph 56% 0 in 86.00 W/m2 unknown
18:39 78.8 °F 60.8 °F 29.9 in ESE 1.9 mph 3.7 mph 57% 0 in 125.00 W/m2 unknown
18:44 78.8 °F 62.6 °F 29.9 in East 1.9 mph 3.1 mph 59% 0 in 125.00 W/m2 unknown
18:49 78.8 °F 62.6 °F 29.9 in East 2.5 mph 5 mph 60% 0 in 102.00 W/m2 unknown
18:54 78.8 °F 62.6 °F 29.9 in East 2.5 mph 5 mph 59% 0 in 83.00 W/m2 unknown
18:59 78.8 °F 62.6 °F 29.9 in East 2.5 mph 5 mph 58% 0 in 58.00 W/m2 unknown
19:04 77 °F 62.6 °F 29.9 in East 2.5 mph 3.7 mph 60% 0 in 39.00 W/m2 unknown
19:09 77 °F 62.6 °F 29.9 in East 1.9 mph 3.1 mph 61% 0 in 25.00 W/m2 unknown
19:14 77 °F 62.6 °F 29.9 in East 1.2 mph 2.5 mph 63% 0 in 18.00 W/m2 unknown
19:19 77 °F 62.6 °F 29.9 in East 1.2 mph 1.9 mph 63% 0 in 16.00 W/m2 unknown
19:24 77 °F 62.6 °F 29.9 in East 1.9 mph 3.7 mph 65% 0 in 16.00 W/m2 unknown
19:29 75.2 °F 62.6 °F 29.9 in East 1.2 mph 3.1 mph 65% 0 in 14.00 W/m2 unknown
19:34 75.2 °F 62.6 °F 29.9 in East 0.6 mph 2.5 mph 65% 0 in 12.00 W/m2 unknown
19:39 75.2 °F 62.6 °F 29.9 in East 0.6 mph 1.9 mph 67% 0 in 11.00 W/m2 unknown
19:44 75.2 °F 62.6 °F 29.9 in East 0.6 mph 1.9 mph 68% 0 in 7.00 W/m2 unknown
19:49 75.2 °F 62.6 °F 29.9 in East 1.2 mph 2.5 mph 68% 0 in 0.00 W/m2 unknown
19:54 75.2 °F 62.6 °F 29.9 in Calm   1.9 mph 66% 0 in 0.00 W/m2 unknown
19:59 73.4 °F 62.6 °F 29.9 in East 0.6 mph 2.5 mph 66% 0 in 0.00 W/m2 unknown
20:04 73.4 °F 62.6 °F 29.9 in Calm   1.9 mph 67% 0 in 0.00 W/m2 unknown
20:09 73.4 °F 62.6 °F 29.9 in East 1.2 mph 2.5 mph 67% 0 in 0.00 W/m2 unknown
20:14 73.4 °F 60.8 °F 29.9 in East 1.2 mph 2.5 mph 67% 0 in 0.00 W/m2 unknown
20:19 73.4 °F 60.8 °F 29.9 in ENE 1.9 mph 2.5 mph 67% 0 in 0.00 W/m2 unknown
20:24 73.4 °F 60.8 °F 29.9 in ENE 1.9 mph 3.1 mph 66% 0 in 0.00 W/m2 unknown
20:29 73.4 °F 60.8 °F 29.9 in ENE 1.9 mph 3.7 mph 67% 0 in 0.00 W/m2 unknown
20:34 71.6 °F 60.8 °F 29.9 in ENE 1.2 mph 3.7 mph 68% 0 in 0.00 W/m2 unknown
20:39 71.6 °F 60.8 °F 29.9 in NE 2.5 mph 3.7 mph 68% 0 in 0.00 W/m2 unknown
20:44 71.6 °F 60.8 °F 29.9 in ENE 2.5 mph 3.7 mph 69% 0 in 0.00 W/m2 unknown
20:49 71.6 °F 60.8 °F 29.9 in ENE 1.2 mph 3.1 mph 70% 0 in 0.00 W/m2 unknown
20:54 71.6 °F 60.8 °F 29.9 in ENE 1.2 mph 2.5 mph 71% 0 in 0.00 W/m2 unknown
20:59 71.6 °F 60.8 °F 29.9 in ENE 1.2 mph 2.5 mph 71% 0 in 0.00 W/m2 unknown
21:04 71.6 °F 62.6 °F 29.9 in ENE 1.2 mph 2.5 mph 71% 0 in 0.00 W/m2 unknown
21:09 71.6 °F 62.6 °F 29.9 in ENE 1.2 mph 2.5 mph 71% 0 in 0.00 W/m2 unknown
21:14 71.6 °F 62.6 °F 29.9 in ENE 1.9 mph 3.1 mph 71% 0 in 0.00 W/m2 unknown
21:19 71.6 °F 60.8 °F 29.9 in ENE 1.9 mph 3.1 mph 71% 0 in 0.00 W/m2 unknown
21:24 71.6 °F 60.8 °F 29.9 in ENE 2.5 mph 3.7 mph 71% 0 in 0.00 W/m2 unknown
21:29 71.6 °F 60.8 °F 29.9 in ENE 2.5 mph 3.7 mph 72% 0 in 0.00 W/m2 unknown
21:34 71.6 °F 60.8 °F 29.9 in East 3.1 mph 5 mph 72% 0 in 0.00 W/m2 unknown
21:39 71.6 °F 60.8 °F 29.9 in East 3.1 mph 5 mph 72% 0 in 0.00 W/m2 unknown
21:44 71.6 °F 60.8 °F 29.9 in ENE 3.1 mph 5 mph 71% 0 in 0.00 W/m2 unknown
21:49 71.6 °F 60.8 °F 29.9 in East 2.5 mph 3.7 mph 71% 0 in 0.00 W/m2 unknown
21:54 71.6 °F 60.8 °F 29.9 in East 2.5 mph 3.7 mph 70% 0 in 0.00 W/m2 unknown
21:59 71.6 °F 60.8 °F 29.9 in East 2.5 mph 3.7 mph 70% 0 in 0.00 W/m2 unknown
22:04 69.8 °F 60.8 °F 29.9 in ESE 5 mph 8.1 mph 70% 0 in 0.00 W/m2 unknown
22:09 69.8 °F 60.8 °F 29.9 in ESE 5.6 mph 8.1 mph 71% 0 in 0.00 W/m2 unknown
22:14 69.8 °F 60.8 °F 29.9 in SE 2.5 mph 8.1 mph 73% 0 in 0.00 W/m2 unknown
22:19 69.8 °F 60.8 °F 29.9 in ESE 1.9 mph 5 mph 75% 0 in 0.00 W/m2 unknown
22:24 69.8 °F 60.8 °F 29.9 in East 3.1 mph 5 mph 75% 0 in 0.00 W/m2 unknown
22:29 69.8 °F 60.8 °F 29.9 in East 2.5 mph 5 mph 74% 0 in 0.00 W/m2 unknown
22:34 69.8 °F 60.8 °F 29.9 in ESE 2.5 mph 5 mph 74% 0 in 0.00 W/m2 unknown
22:39 69.8 °F 60.8 °F 29.9 in East 2.5 mph 5 mph 73% 0 in 0.00 W/m2 unknown
22:44 69.8 °F 60.8 °F 29.9 in East 2.5 mph 5 mph 73% 0 in 0.00 W/m2 unknown
22:49 69.8 °F 60.8 °F 29.9 in ESE 1.9 mph 3.7 mph 73% 0 in 0.00 W/m2 unknown
22:54 69.8 °F 60.8 °F 29.9 in ESE 2.5 mph 3.7 mph 74% 0 in 0.00 W/m2 unknown
22:59 69.8 °F 60.8 °F 29.9 in ESE 2.5 mph 3.7 mph 74% 0 in 0.00 W/m2 unknown
23:04 69.8 °F 60.8 °F 29.9 in East 3.1 mph 3.7 mph 74% 0 in 0.00 W/m2 unknown
23:09 69.8 °F 60.8 °F 29.9 in ENE 3.1 mph 3.7 mph 74% 0 in 0.00 W/m2 unknown
23:14 69.8 °F 60.8 °F 29.9 in East 3.7 mph 5 mph 74% 0 in 0.00 W/m2 unknown
23:19 69.8 °F 60.8 °F 29.9 in ENE 4.3 mph 6.8 mph 73% 0 in 0.00 W/m2 unknown
23:24 69.8 °F 60.8 °F 29.9 in East 5 mph 6.8 mph 73% 0 in 0.00 W/m2 unknown
23:29 69.8 °F 60.8 °F 29.9 in East 4.3 mph 6.2 mph 74% 0 in 0.00 W/m2 unknown
23:34 69.8 °F 60.8 °F 29.9 in East 3.1 mph 6.2 mph 74% 0 in 0.00 W/m2 unknown
23:39 69.8 °F 60.8 °F 29.9 in ESE 3.1 mph 5 mph 74% 0 in 0.00 W/m2 unknown
23:44 69.8 °F 60.8 °F 29.9 in ESE 3.1 mph 5 mph 74% 0 in 0.00 W/m2 unknown
23:49 69.8 °F 60.8 °F 29.9 in ESE 4.3 mph 5 mph 74% 0 in 0.00 W/m2 unknown
23:54 69.8 °F 60.8 °F 29.9 in ESE 3.7 mph 5 mph 74% 0 in 0.00 W/m2 unknown
23:59 69.8 °F 60.8 °F 29.9 in East 2.5 mph 5 mph 74% 0 in 0.00 W/m2 unknown
Stazione Meteorologica MeteoMincio Rivalta s/M (MN)
Con i complimenti di Weather Underground - 4 mb



METEO PILLOLE
I venti più forti in un ciclone tropicale con persistenza di oltre 24 ore
Lungo le coste dell'Alabama e del Mississippi
Durante l'uragano Camilla, dal 17 al 18 agosto del 1969, la velocità media dei venti fu di 322 km/h con raffiche fino a 338 km/h.
Share

Non seguire questo link o sarai bannato dal sito!